Location: Beetenbrück
(52.8113°N, 9.5946°E)
Time: 22:21:04
(UTC+00:00)

Helios 1B rocket - Pass Details

Date: 14 April 2026
Orbit: 462 x 468 km, 98.2° (Epoch: 12 May)

Event Time Altitude Azimuth Distance (km) Brightness Sun altitude
Exits shadow 21:31:53 46° 25° (NNE) 642 2.8 -23.3°
Drops below altitude 10° 21:34:39 10° 352° (N) 1,644 5.7 -23.5°
Sets 21:36:44 0° 349° (NNW) 2,528 7.0 -23.6°
